• In Belarus
  • List of Countries
  • For 7 days
  • Water Temperature
  • Weather Map
  • Weather Widgets
  • user-avatar
    Login

    Hourly Weather Mazari Sharif

    Today, 20 September, Friday

    Time Temperature Precipitation Wind Pressure Humidity
    00:00 +19°C° 0 mm 1 mps 656 mmHg 31%
    01:00 +19°C° 0 mm 1 mps 656 mmHg 31%
    02:00 +19°C° 0 mm 1 mps 655 mmHg 32%
    03:00 +19°C° 0 mm 1 mps 655 mmHg 33%
    04:00 +17°C° 0 mm 2 mps 655 mmHg 34%
    05:00 +21°C° 0 mm 1 mps 656 mmHg 29%
    06:00 +23°C° 0 mm 1 mps 657 mmHg 23%
    07:00 +25°C° 0 mm 1 mps 658 mmHg 18%
    08:00 +27°C° 0 mm 2 mps 658 mmHg 16%
    09:00 +29°C° 0 mm 2 mps 659 mmHg 14%
    10:00 +31°C° 0 mm 2 mps 659 mmHg 12%
    11:00 +31°C° 0 mm 3 mps 659 mmHg 12%
    12:00 +33°C° 0 mm 4 mps 658 mmHg 11%
    13:00 +33°C° 0 mm 5 mps 658 mmHg 10%
    14:00 +33°C° 0 mm 5 mps 658 mmHg 11%
    15:00 +32°C° 0 mm 5 mps 658 mmHg 11%
    16:00 +32°C° 0 mm 4 mps 658 mmHg 11%
    17:00 +28°C° 0 mm 3 mps 657 mmHg 15%
    18:00 +24°C° 0 mm 2 mps 656 mmHg 18%
    19:00 +21°C° 0 mm 1 mps 656 mmHg 21%
    20:00 +20°C° 0 mm 1 mps 656 mmHg 24%
    21:00 +20°C° 0 mm 1 mps 656 mmHg 27%
    22:00 +19°C° 0 mm 1 mps 655 mmHg 29%
    23:00 +19°C° 0 mm 1 mps 655 mmHg 30%

    Tomorrow, 21 September, Saturday

    Time Temperature Precipitation Wind Pressure Humidity
    00:00 +18°C° 0 mm 1 mps 655 mmHg 31%
    01:00 +18°C° 0 mm 1 mps 654 mmHg 32%
    02:00 +18°C° 0 mm 1 mps 654 mmHg 33%
    03:00 +16°C° 0 mm 1 mps 654 mmHg 35%
    04:00 +16°C° 0 mm 1 mps 654 mmHg 36%
    05:00 +19°C° 0 mm 1 mps 655 mmHg 30%
    06:00 +22°C° 0 mm 1 mps 656 mmHg 23%
    07:00 +24°C° 0 mm 1 mps 657 mmHg 17%
    08:00 +26°C° 0 mm 1 mps 657 mmHg 15%
    09:00 +28°C° 0 mm 2 mps 657 mmHg 13%
    10:00 +30°C° 0 mm 2 mps 657 mmHg 11%
    11:00 +31°C° 0 mm 2 mps 657 mmHg 11%
    12:00 +33°C° 0 mm 3 mps 656 mmHg 10%
    13:00 +33°C° 0 mm 4 mps 655 mmHg 9%
    14:00 +33°C° 0 mm 4 mps 655 mmHg 9%
    15:00 +33°C° 0 mm 4 mps 655 mmHg 9%
    16:00 +32°C° 0 mm 4 mps 655 mmHg 10%
    17:00 +28°C° 0 mm 3 mps 654 mmHg 13%
    18:00 +25°C° 0 mm 3 mps 653 mmHg 16%
    19:00 +21°C° 0 mm 2 mps 653 mmHg 19%
    20:00 +20°C° 0 mm 2 mps 653 mmHg 21%
    21:00 +19°C° 0 mm 2 mps 652 mmHg 23%
    22:00 +20°C° 0 mm 1 mps 652 mmHg 25%
    23:00 +19°C° 0 mm 1 mps 652 mmHg 29%

    Day after tomorrow, 22 September, Sunday

    Time Temperature Precipitation Wind Pressure Humidity
    00:00 +18°C° 0 mm 1 mps 652 mmHg 33%
    01:00 +18°C° 0 mm 1 mps 651 mmHg 37%
    02:00 +16°C° 0 mm 1 mps 651 mmHg 38%
    03:00 +16°C° 0 mm 1 mps 651 mmHg 40%
    04:00 +15°C° 0 mm 1 mps 651 mmHg 42%
    05:00 +20°C° 0 mm 1 mps 652 mmHg 32%
    06:00 +23°C° 0 mm 1 mps 653 mmHg 22%
    07:00 +26°C° 0 mm 1 mps 655 mmHg 12%
    08:00 +28°C° 0 mm 1 mps 655 mmHg 11%
    09:00 +30°C° 0 mm 1 mps 655 mmHg 9%
    10:00 +32°C° 0 mm 2 mps 656 mmHg 7%
    11:00 +34°C° 0 mm 2 mps 656 mmHg 7%
    12:00 +35°C° 0 mm 3 mps 656 mmHg 6%
    13:00 +36°C° 0 mm 3 mps 656 mmHg 6%
    14:00 +35°C° 0 mm 3 mps 656 mmHg 6%
    15:00 +35°C° 0 mm 3 mps 656 mmHg 6%
    16:00 +34°C° 0 mm 4 mps 656 mmHg 6%
    17:00 +29°C° 0 mm 3 mps 656 mmHg 10%
    18:00 +26°C° 0 mm 2 mps 655 mmHg 13%
    19:00 +22°C° 0 mm 1 mps 655 mmHg 16%
    20:00 +20°C° 0 mm 3 mps 656 mmHg 24%
    21:00 +20°C° 0 mm 4 mps 656 mmHg 31%
    22:00 +20°C° 0 mm 5 mps 657 mmHg 38%
    23:00 +19°C° 0 mm 5 mps 657 mmHg 45%

    23 September, Monday

    Time Temperature Precipitation Wind Pressure Humidity
    00:00 +18°C° 0 mm 4 mps 657 mmHg 52%
    01:00 +17°C° 0 mm 4 mps 658 mmHg 58%
    02:00 +15°C° 0 mm 4 mps 658 mmHg 61%
    03:00 +14°C° 0 mm 4 mps 658 mmHg 64%
    04:00 +13°C° 0 mm 4 mps 658 mmHg 67%
    05:00 +14°C° 0 mm 3 mps 658 mmHg 62%
    06:00 +17°C° 0 mm 2 mps 659 mmHg 58%
    07:00 +19°C° 0 mm 1 mps 660 mmHg 53%
    08:00 +19°C° 0 mm 2 mps 660 mmHg 48%
    09:00 +21°C° 0 mm 2 mps 660 mmHg 43%
    10:00 +24°C° 0 mm 2 mps 660 mmHg 38%
    11:00 +25°C° 0 mm 3 mps 660 mmHg 35%
    12:00 +26°C° 0 mm 3 mps 660 mmHg 33%
    13:00 +26°C° 0 mm 3 mps 659 mmHg 30%
    14:00 +26°C° 0 mm 3 mps 659 mmHg 30%
    15:00 +26°C° 0 mm 3 mps 658 mmHg 30%
    16:00 +25°C° 0 mm 2 mps 658 mmHg 30%
    17:00 +21°C° 0 mm 2 mps 657 mmHg 36%
    18:00 +20°C° 0 mm 1 mps 657 mmHg 43%
    19:00 +16°C° 0 mm 1 mps 656 mmHg 50%
    20:00 +16°C° 0 mm 1 mps 656 mmHg 51%
    21:00 +15°C° 0 mm 1 mps 656 mmHg 52%
    22:00 +15°C° 0 mm 1 mps 656 mmHg 54%
    23:00 +15°C° 0 mm 1 mps 656 mmHg 53%

    24 September, Tuesday

    Time Temperature Precipitation Wind Pressure Humidity
    00:00 +15°C° 0 mm 1 mps 655 mmHg 52%
    01:00 +14°C° 0 mm 1 mps 655 mmHg 52%
    02:00 +14°C° 0 mm 1 mps 655 mmHg 54%
    03:00 +12°C° 0 mm 0 mps 655 mmHg 57%
    04:00 +12°C° 0 mm 0 mps 654 mmHg 59%
    05:00 +14°C° 0 mm 0 mps 656 mmHg 49%
    06:00 +17°C° 0 mm 0 mps 657 mmHg 38%
    07:00 +20°C° 0 mm 0 mps 658 mmHg 27%
    08:00 +24°C° 0 mm 1 mps 658 mmHg 25%
    09:00 +26°C° 0 mm 2 mps 659 mmHg 23%
    10:00 +27°C° 0 mm 2 mps 659 mmHg 20%
    11:00 +28°C° 0 mm 3 mps 659 mmHg 20%
    12:00 +29°C° 0 mm 3 mps 658 mmHg 19%
    13:00 +30°C° 0 mm 4 mps 658 mmHg 19%
    14:00 +29°C° 0 mm 3 mps 658 mmHg 20%
    15:00 +29°C° 0 mm 3 mps 658 mmHg 21%
    16:00 +28°C° 0 mm 2 mps 657 mmHg 21%
    17:00 +25°C° 0 mm 2 mps 657 mmHg 27%
    18:00 +22°C° 0 mm 1 mps 656 mmHg 32%
    19:00 +19°C° 0 mm 1 mps 656 mmHg 38%
    20:00 +19°C° 0 mm 1 mps 656 mmHg 40%
    21:00 +18°C° 0 mm 1 mps 656 mmHg 42%
    22:00 +18°C° 0 mm 1 mps 655 mmHg 45%
    23:00 +18°C° 0 mm 1 mps 655 mmHg 46%

    25 September, Wednesday

    Time Temperature Precipitation Wind Pressure Humidity
    00:00 +16°C° 0 mm 1 mps 655 mmHg 48%
    01:00 +16°C° 0 mm 1 mps 654 mmHg 49%
    02:00 +16°C° 0 mm 1 mps 654 mmHg 50%
    03:00 +15°C° 0 mm 1 mps 654 mmHg 52%
    04:00 +15°C° 0 mm 1 mps 654 mmHg 53%
    05:00 +19°C° 0 mm 1 mps 655 mmHg 44%
    06:00 +19°C° 0 mm 0 mps 656 mmHg 34%
    07:00 +22°C° 0 mm 0 mps 657 mmHg 25%
    08:00 +26°C° 0 mm 1 mps 658 mmHg 23%
    09:00 +27°C° 0 mm 2 mps 658 mmHg 20%
    10:00 +29°C° 0 mm 2 mps 658 mmHg 18%
    11:00 +30°C° 0 mm 3 mps 658 mmHg 17%
    12:00 +31°C° 0 mm 3 mps 658 mmHg 17%
    13:00 +33°C° 0 mm 4 mps 658 mmHg 16%
    14:00 +31°C° 0 mm 3 mps 658 mmHg 16%
    15:00 +31°C° 0 mm 3 mps 658 mmHg 17%
    16:00 +30°C° 0 mm 3 mps 657 mmHg 18%
    17:00 +27°C° 0 mm 2 mps 657 mmHg 23%
    18:00 +24°C° 0 mm 2 mps 656 mmHg 27%
    19:00 +20°C° 0 mm 1 mps 656 mmHg 32%
    20:00 +20°C° 0 mm 1 mps 656 mmHg 34%
    21:00 +20°C° 0 mm 1 mps 656 mmHg 36%
    22:00 +20°C° 0 mm 1 mps 656 mmHg 38%
    23:00 +19°C° 0 mm 1 mps 656 mmHg 40%
    Show more